TimeCST,TemperatureF,Dew PointF,Humidity,Sea Level PressureIn,VisibilityMPH,Wind Direction,Wind SpeedMPH,Gust SpeedMPH,PrecipitationIn,Events,Conditions,WindDirDegrees,DateUTC
12:15 AM,43.3,43.2,99,30.04,4.0,NNE,6.9,-,N/A,,Overcast,20,2013-01-01 06:15:00
12:35 AM,43.2,43.0,99,30.04,5.0,NNE,3.5,-,N/A,,Overcast,20,2013-01-01 06:35:00
12:55 AM,43.2,42.8,99,30.04,5.0,NE,5.8,-,N/A,,Overcast,40,2013-01-01 06:55:00
1:15 AM,42.8,42.3,98,30.03,5.0,NE,5.8,-,N/A,,Overcast,40,2013-01-01 07:15:00
1:35 AM,42.8,42.3,98,30.04,5.0,Calm,Calm,-,N/A,,Overcast,0,2013-01-01 07:35:00
1:55 AM,42.8,42.1,97,30.04,5.0,Calm,Calm,-,N/A,,Overcast,0,2013-01-01 07:55:00
2:15 AM,42.8,41.9,97,30.05,5.0,Calm,Calm,-,N/A,,Overcast,0,2013-01-01 08:15:00
2:35 AM,42.8,41.9,97,30.05,7.0,Calm,Calm,-,N/A,,Overcast,0,2013-01-01 08:35:00
2:55 AM,42.4,41.7,97,30.06,5.0,Calm,Calm,-,N/A,,Overcast,0,2013-01-01 08:55:00
3:15 AM,42.4,41.5,97,30.05,7.0,Calm,Calm,-,N/A,,Overcast,0,2013-01-01 09:15:00
3:35 AM,42.3,41.5,97,30.09,5.0,NW,4.6,-,N/A,,Overcast,320,2013-01-01 09:35:00
3:55 AM,42.3,41.5,97,30.09,5.0,NNW,3.5,-,N/A,,Drizzle,330,2013-01-01 09:55:00
4:15 AM,42.1,41.5,98,30.07,5.0,North,3.5,-,N/A,,Light Drizzle,360,2013-01-01 10:15:00
4:35 AM,41.9,41.4,98,30.06,5.0,NNW,5.8,-,N/A,,Overcast,340,2013-01-01 10:35:00
4:55 AM,41.9,41.2,97,30.04,5.0,NE,3.5,-,N/A,,Overcast,40,2013-01-01 10:55:00
5:15 AM,41.9,41.2,97,30.07,5.0,NNW,5.8,-,N/A,,Overcast,330,2013-01-01 11:15:00
5:35 AM,41.9,41.4,98,30.08,4.0,NW,8.1,-,N/A,,Overcast,320,2013-01-01 11:35:00
5:55 AM,42.1,41.4,97,30.10,5.0,NW,8.1,-,N/A,,Overcast,320,2013-01-01 11:55:00
6:15 AM,42.1,41.4,97,30.12,5.0,NW,6.9,-,N/A,,Overcast,320,2013-01-01 12:15:00
6:35 AM,41.9,40.6,95,30.12,7.0,NNW,8.1,-,N/A,,Overcast,330,2013-01-01 12:35:00
6:55 AM,41.5,40.1,95,30.11,7.0,North,4.6,-,N/A,,Overcast,350,2013-01-01 12:55:00
7:15 AM,41.4,39.6,93,30.12,7.0,North,8.1,-,N/A,,Overcast,350,2013-01-01 13:15:00
7:35 AM,41.4,39.6,93,30.11,7.0,NNE,5.8,-,N/A,,Overcast,20,2013-01-01 13:35:00
7:55 AM,41.4,39.7,94,30.12,7.0,North,5.8,-,N/A,,Overcast,350,2013-01-01 13:55:00
8:15 AM,41.4,39.9,95,30.14,5.0,NW,4.6,-,N/A,,Overcast,320,2013-01-01 14:15:00
8:35 AM,41.4,39.7,94,30.15,5.0,NNW,8.1,-,N/A,,Overcast,330,2013-01-01 14:35:00
8:55 AM,41.4,39.7,94,30.14,5.0,NNW,8.1,-,N/A,,Overcast,340,2013-01-01 14:55:00
9:15 AM,41.0,39.6,95,30.15,5.0,NNW,9.2,-,N/A,,Light Drizzle,340,2013-01-01 15:15:00
9:35 AM,41.0,39.2,93,30.18,5.0,NNW,8.1,-,N/A,,Overcast,330,2013-01-01 15:35:00
9:55 AM,41.0,38.8,92,30.20,7.0,NW,11.5,-,N/A,,Overcast,320,2013-01-01 15:55:00
10:15 AM,41.0,38.5,91,30.20,7.0,NW,12.7,-,N/A,,Overcast,320,2013-01-01 16:15:00
10:35 AM,40.6,38.5,92,30.20,5.0,NNW,9.2,16.1,N/A,,Overcast,330,2013-01-01 16:35:00
10:55 AM,41.0,38.3,90,30.21,7.0,NNW,11.5,-,N/A,,Overcast,340,2013-01-01 16:55:00
11:15 AM,40.8,38.1,90,30.22,7.0,NNW,15.0,-,N/A,,Overcast,330,2013-01-01 17:15:00
11:35 AM,41.0,38.3,90,30.21,7.0,NNW,11.5,-,N/A,,Overcast,330,2013-01-01 17:35:00
11:55 AM,40.5,37.6,89,30.20,7.0,NW,15.0,18.4,N/A,,Overcast,310,2013-01-01 17:55:00
12:15 PM,40.5,37.4,89,30.20,7.0,NNW,12.7,18.4,N/A,,Overcast,330,2013-01-01 18:15:00
12:35 PM,41.7,38.1,87,30.19,10.0,NNW,10.4,18.4,N/A,,Overcast,340,2013-01-01 18:35:00
12:55 PM,41.2,37.6,87,30.18,10.0,NNW,12.7,17.3,N/A,,Overcast,340,2013-01-01 18:55:00
1:15 PM,41.0,37.4,87,30.18,10.0,NW,10.4,-,N/A,,Overcast,320,2013-01-01 19:15:00
1:35 PM,41.4,37.6,86,30.18,7.0,NW,12.7,17.3,N/A,,Overcast,320,2013-01-01 19:35:00
1:55 PM,41.0,36.7,85,30.18,10.0,North,11.5,17.3,N/A,,Overcast,350,2013-01-01 19:55:00
2:15 PM,40.3,36.5,86,30.18,10.0,NNW,13.8,18.4,N/A,,Overcast,330,2013-01-01 20:15:00
2:35 PM,40.5,36.3,85,30.18,10.0,NNW,12.7,-,N/A,,Overcast,340,2013-01-01 20:35:00
2:55 PM,40.3,36.0,85,30.18,10.0,NNW,10.4,-,N/A,,Overcast,340,2013-01-01 20:55:00
3:15 PM,40.8,36.3,84,30.18,7.0,NNW,9.2,-,N/A,,Overcast,330,2013-01-01 21:15:00
3:35 PM,40.6,35.6,82,30.19,10.0,NNW,11.5,-,N/A,,Overcast,340,2013-01-01 21:35:00
3:55 PM,41.0,36.0,82,30.19,10.0,NNW,9.2,-,N/A,,Overcast,330,2013-01-01 21:55:00
4:15 PM,40.3,35.6,83,30.20,7.0,NNW,12.7,-,N/A,,Overcast,330,2013-01-01 22:15:00
4:35 PM,39.7,35.4,85,30.20,7.0,NNW,10.4,-,N/A,,Overcast,330,2013-01-01 22:35:00
4:55 PM,39.6,35.1,84,30.21,7.0,NNW,9.2,-,N/A,,Overcast,330,2013-01-01 22:55:00
5:15 PM,39.2,34.7,84,30.22,7.0,NNW,11.5,-,N/A,,Overcast,340,2013-01-01 23:15:00
5:35 PM,39.0,34.5,84,30.23,7.0,NNW,9.2,-,N/A,,Overcast,330,2013-01-01 23:35:00
5:55 PM,38.5,34.2,84,30.23,10.0,NNW,6.9,-,N/A,,Overcast,340,2013-01-01 23:55:00
6:15 PM,38.3,33.6,83,30.24,10.0,NNW,10.4,-,N/A,,Overcast,330,2013-01-02 00:15:00
6:35 PM,38.1,33.6,84,30.24,10.0,NNW,8.1,-,N/A,,Overcast,340,2013-01-02 00:35:00
6:55 PM,37.8,33.3,84,30.25,10.0,NNW,11.5,-,N/A,,Overcast,340,2013-01-02 00:55:00
7:15 PM,37.6,32.9,83,30.25,10.0,NNW,10.4,-,N/A,,Overcast,340,2013-01-02 01:15:00
7:35 PM,37.4,32.9,84,30.25,10.0,NNW,9.2,-,N/A,,Overcast,340,2013-01-02 01:35:00
7:55 PM,37.4,32.9,84,30.24,10.0,NNW,8.1,-,N/A,,Overcast,340,2013-01-02 01:55:00
8:15 PM,37.4,32.5,83,30.25,10.0,NNW,10.4,-,N/A,,Overcast,340,2013-01-02 02:15:00
8:35 PM,37.0,32.4,83,30.25,10.0,NNW,9.2,-,N/A,,Overcast,340,2013-01-02 02:35:00
8:55 PM,36.9,32.2,83,30.25,10.0,NNW,8.1,-,N/A,,Overcast,330,2013-01-02 02:55:00
9:15 PM,36.7,32.0,83,30.25,10.0,NNW,8.1,-,N/A,,Overcast,330,2013-01-02 03:15:00
9:35 PM,36.7,32.0,83,30.25,10.0,NW,5.8,-,N/A,,Overcast,320,2013-01-02 03:35:00
9:55 PM,36.5,32.0,84,30.25,10.0,NNW,8.1,-,N/A,,Overcast,330,2013-01-02 03:55:00
10:15 PM,36.5,32.0,84,30.26,10.0,NW,4.6,-,N/A,,Overcast,320,2013-01-02 04:15:00
10:55 PM,36.1,31.6,84,30.28,10.0,NW,6.9,-,N/A,,Overcast,310,2013-01-02 04:55:00
11:15 PM,36.0,31.1,82,30.27,10.0,NNW,8.1,-,N/A,,Overcast,330,2013-01-02 05:15:00
11:55 PM,35.8,30.9,82,30.27,10.0,NNW,10.4,-,N/A,,Overcast,330,2013-01-02 05:55:00